• Join FlightAware (Why Join?)
  • Login
  • US Flag 
08:42PM EDT


 

Airport Tracker/Info


-or-


 

Live Flight TrackerFlight Track Log ✈ OPT429 ✈ 25-Jun-2014 ✈ KMCO - KPBI

Flight Track Log - Related Links

Times and Time Zones

All times are in EDT time to prevent confusion due to time zone crossing. See the OPT429 flight status page for this flight to view local times or setup timezone preferences in your user account.

Time Position Orientation Groundspeed Altitude Reporting Facility
EDT Latitude Longitude Course Direction KTS MPH feet Rate Location/Type
03:41PM 28.3833 -81.2833 139° Southeast 196 226 4,900  Level Orlando TRACON
03:42PM 28.3333 -81.2167 130° Southeast 264 304 7,400 1,560 Climbing Orlando TRACON
03:43PM 28.2833 -81.1500 130° Southeast 297 342 8,100 1,020 Climbing Orlando TRACON
03:44PM 28.2094 -81.0819 141° Southeast 299 344 9,700 1,800 Climbing Miami Center
03:45PM 28.0803 -81.0627 134° Southeast  Level Estimated
03:45PM 28.1464 -81.0122 136° Southeast 315 362 12,000  Level Miami Center
03:46PM 28.0683 -80.9239 135° Southeast 387 445 12,000  Level Miami Center
03:47PM 27.9853 -80.8342 136° Southeast 393 452 12,000  Level Miami Center
03:48PM 27.9008 -80.7450 137° Southeast 393 452 12,000  Level Miami Center
03:49PM 27.8172 -80.6564 137° Southeast 393 452 12,000  Level Miami Center
03:50PM 27.7342 -80.5686 137° Southeast 393 452 12,000  Level Miami Center
03:51PM 27.6567 -80.4875 137° Southeast 390 449 12,000  Level Miami Center
03:52PM 27.5747 -80.4017 137° Southeast 387 445 12,000  Level Miami Center
03:53PM 27.4969 -80.3206 137° Southeast 367 422 12,000  Level Miami Center
03:54PM 27.4203 -80.2403 137° Southeast 363 418 12,000 -540 Level Miami Center
03:55PM 27.3489 -80.1661 137° Southeast 332 382 10,900 -1,020 Descending Miami Center
03:56PM 27.2653 -80.1331 161° South 314 361 10,000 -1,140 Descending Miami Center
03:57PM 27.1833 -80.1222 173° South 308 354 8,600 -1,740 Descending Miami Center
03:58PM 27.0983 -80.1083 172° South 297 342 6,500 -2,040 Descending Miami Center
03:59PM 27.0186 -80.0981 173° South 277 319 4,400 -1,260 Descending Miami Center
04:00PM 26.9439 -80.1078 187° South 265 305 4,000 -540 Descending Miami Center
04:01PM 26.8778 -80.1269 194° South 237 273 3,300 -540 Descending Miami Center
04:02PM 26.8175 -80.1392 190° South 228 262 2,900 -780 Descending Miami Center
04:03PM 26.7619 -80.1408 182° South 194 223 1,700 -1,080 Descending Miami Center
04:04PM 26.7156 -80.1303 169° South 162 186 700 -600 Descending Miami Center
04:05PM 26.6861 -80.1014 139° Southeast 157 181 500 -240 Descending Miami Center
04:07PM 26.6832 -80.0956 110° East  Level Estimated
04:14PM 26.6832 -80.0956 110° East  Level Estimated